DateTimeUTC,F1_A11,F1_S11,BsB_S11,BsG_S11,BsR_S11,BbsB_S11,BbsG_S11,BbsR_S11,BaB_A11,BaG_A11,BaR_A11,Tu_S11,T_S11,Uu_S11,U_S11,P_S11,T1_A11
2021-05-26T16:00:00Z,00000200,20000000,,,,,,,-000.36,-000.20,0000.01,18.3,24.6,13.3,09.0,0677.1,30.9
2021-05-26T16:01:00Z,00000200,20000000,,,,,,,0000.18,0000.45,0000.08,18.3,24.7,13.3,09.0,0677.1,31.0
2021-05-26T16:02:00Z,00000200,20000000,,,,,,,0000.07,0000.13,0000.34,18.3,24.7,13.3,09.0,0677.1,30.9
2021-05-26T16:03:00Z,00000200,60000000,,,,,,,0000.68,0000.47,0000.42,18.3,24.7,13.3,09.0,0677.1,30.9
2021-05-26T16:04:00Z,00000200,40000000,0003.57,0002.38,0001.63,0000.15,0000.23,-000.03,-000.10,0000.13,0000.07,18.4,24.6,13.6,09.4,0678.0,30.9
2021-05-26T16:05:00Z,00000200,00000000,0003.36,0002.54,0001.78,0000.16,0000.10,0000.33,0000.32,0000.54,0000.58,18.5,24.6,13.7,09.4,0678.1,31.0
2021-05-26T16:06:00Z,00000200,00000000,0002.84,0002.35,0001.61,0000.22,0000.27,0000.17,0000.35,0000.24,0000.72,18.5,24.5,13.6,09.4,0678.1,30.9
2021-05-26T16:07:00Z,00000200,00000000,0003.49,0002.86,0001.73,0000.41,0000.31,0000.08,0000.01,-000.07,0000.15,18.5,24.6,13.6,09.4,0678.2,30.9
2021-05-26T16:08:00Z,00000200,00000000,0003.58,0002.80,0001.74,0000.13,-000.13,0000.16,-000.01,0000.06,-000.12,18.6,24.6,13.6,09.4,0678.2,31.0
2021-05-26T16:09:00Z,00000200,00000000,0003.15,0002.89,0001.92,0000.75,0000.20,0000.30,0000.37,0000.16,0000.22,18.6,24.6,13.5,09.4,0678.1,31.0
2021-05-26T16:10:00Z,00000200,00000000,0003.70,0002.70,0001.49,0000.29,0000.29,0000.11,-000.15,0000.32,0000.41,18.6,24.6,13.5,09.4,0678.2,31.0
2021-05-26T16:11:00Z,00000200,00000000,0003.07,0002.96,0001.71,0000.56,0000.45,0000.12,0000.49,0000.49,0000.49,18.6,24.6,13.7,09.5,0678.3,31.0
2021-05-26T16:12:00Z,00000200,00000000,0003.43,0002.61,0001.61,0000.75,0000.04,0000.08,0000.02,-000.43,0000.14,18.6,24.6,13.6,09.4,0678.2,31.0
2021-05-26T16:13:00Z,00000200,00000000,0003.96,0002.81,0001.83,0000.25,0000.38,0000.29,-000.09,0000.32,0000.15,18.6,24.6,13.5,09.3,0678.2,31.0
2021-05-26T16:14:00Z,00000200,00000000,0004.06,0002.58,0001.84,0000.23,0000.20,0000.45,0000.31,0000.62,0000.46,18.6,24.6,13.4,09.3,0678.3,31.0
2021-05-26T16:15:00Z,00000200,00000000,0003.42,0002.57,0001.81,0000.13,0000.18,0000.30,-000.23,-000.17,-000.19,18.6,24.6,13.3,09.3,0678.2,30.9
2021-05-26T16:16:00Z,00000200,00000000,0002.92,0002.45,0001.46,0000.06,0000.28,-000.10,0000.64,0000.06,0000.55,18.6,24.6,13.5,09.3,0678.2,31.0
2021-05-26T16:17:00Z,00000200,00000000,0003.85,0002.70,0001.76,-000.22,-000.07,0000.28,0000.04,0000.38,0000.29,18.7,24.6,13.4,09.3,0678.2,31.0
2021-05-26T16:18:00Z,00000200,00000000,0002.98,0002.42,0001.58,0000.39,0000.26,0000.01,-000.22,0000.54,0000.27,18.7,24.6,13.4,09.3,0678.1,31.0
2021-05-26T16:19:00Z,00000200,00000000,0003.62,0002.39,0001.84,0000.35,0000.34,0000.08,0000.79,0000.32,0000.66,18.7,24.7,13.5,09.4,0678.2,31.0
2021-05-26T16:20:00Z,00000200,00000000,0003.68,0002.72,0001.57,0000.47,0000.24,0000.26,0000.12,0000.08,0000.22,18.7,24.7,13.4,09.3,0678.2,31.0
2021-05-26T16:21:00Z,00000200,00000000,0003.07,0002.45,0001.73,0001.15,0000.21,0000.03,0000.27,0000.24,0000.72,18.7,24.7,13.6,09.5,0678.3,30.9
2021-05-26T16:22:00Z,00000200,00000000,0003.78,0002.46,0001.57,0000.20,0000.10,0000.26,0000.22,0000.09,0000.03,18.7,24.7,13.6,09.4,0678.2,30.9
2021-05-26T16:23:00Z,00000200,00000000,0003.51,0002.65,0001.72,0000.39,-000.02,0000.09,-000.18,0000.04,0000.04,18.7,24.7,13.5,09.3,0678.2,31.0
2021-05-26T16:24:00Z,00000200,00000000,0002.78,0002.82,0001.32,0000.21,-000.03,0000.07,0000.46,0000.62,0000.37,18.8,24.7,13.5,09.4,0678.2,31.0
2021-05-26T16:25:00Z,00000200,00000000,0003.34,0002.85,0001.27,-000.19,0000.34,0000.10,0000.11,0000.26,0000.54,18.8,24.7,13.4,09.3,0678.2,31.0
2021-05-26T16:26:00Z,00000200,00000000,0003.23,0002.93,0001.82,0000.45,0000.11,0000.24,-000.23,-000.14,0000.29,18.8,24.7,13.5,09.4,0678.2,31.0
2021-05-26T16:27:00Z,00000200,00000000,0003.38,0002.86,0001.88,0000.47,0000.25,0000.26,0000.36,0000.09,0000.13,18.8,24.7,13.5,09.4,0678.2,31.0
2021-05-26T16:28:00Z,00000200,00000000,0003.52,0002.33,0001.43,0000.38,0000.37,-000.00,0000.37,0000.44,0000.41,18.8,24.8,13.4,09.3,0678.2,31.0
2021-05-26T16:29:00Z,00000200,00000000,0003.72,0002.55,0001.38,0000.31,0000.11,-000.12,-000.10,0000.09,-000.22,18.8,24.8,13.2,09.2,0678.2,31.0
2021-05-26T16:30:00Z,00000200,00000000,0003.36,0002.90,0001.93,-000.07,0000.26,0000.19,0000.04,0000.09,0000.66,18.8,24.8,13.3,09.2,0678.2,31.0
2021-05-26T16:31:00Z,00000200,00000000,0003.15,0002.70,0001.66,0000.60,0000.34,0000.14,-000.03,0000.12,-000.07,18.8,24.8,13.3,09.3,0678.2,31.0
2021-05-26T16:32:00Z,00000200,00000000,0003.35,0002.80,0001.70,0000.39,0000.15,0000.18,0000.44,-000.06,0000.22,18.9,24.8,13.3,09.3,0678.2,31.0
2021-05-26T16:33:00Z,00000200,00000000,0003.58,0002.76,0001.93,0000.82,0000.18,0000.15,-000.15,0000.42,0000.58,18.9,24.8,13.2,09.2,0678.2,31.0
2021-05-26T16:34:00Z,00000200,00000000,0003.75,0002.65,0001.92,-000.05,0000.22,0000.25,0000.51,0000.50,0000.24,18.9,24.8,13.2,09.2,0678.2,31.0
2021-05-26T16:35:00Z,00000200,00000000,0003.80,0002.77,0001.72,0000.67,0000.25,0000.13,-000.10,-000.26,0000.33,18.9,24.8,13.2,09.2,0678.2,31.0
2021-05-26T16:36:00Z,00000200,00000000,0003.08,0002.68,0001.82,0000.63,0000.08,-000.08,0000.44,0000.63,0000.29,18.9,24.8,13.1,09.1,0678.2,31.0
2021-05-26T16:37:00Z,00000200,00000000,0003.43,0002.87,0001.87,0000.14,0000.20,0000.28,-000.19,0000.04,0000.30,18.9,24.9,13.2,09.2,0678.3,31.0
2021-05-26T16:38:00Z,00000200,00000000,0002.98,0002.76,0002.03,0000.42,0000.57,0000.24,0000.24,-000.10,0000.05,18.9,24.9,13.2,09.2,0678.2,31.0
2021-05-26T16:39:00Z,00000200,00000000,0003.42,0002.97,0001.71,0000.10,0000.09,0000.47,0000.22,0000.29,0000.55,19.0,24.9,13.1,09.1,0678.3,31.0
2021-05-26T16:40:00Z,00000200,00000000,0003.26,0002.69,0001.76,0000.22,0000.12,-000.10,-000.17,0000.04,-000.12,19.0,24.9,13.1,09.1,0678.2,31.0
2021-05-26T16:41:00Z,00000200,00000000,0003.60,0002.63,0001.79,0000.33,0000.38,0000.33,0000.73,0000.61,0000.79,19.0,24.9,13.2,09.2,0678.4,31.0
2021-05-26T16:42:00Z,00000200,00000000,0003.28,0003.05,0002.08,0000.15,0000.26,0000.14,0000.77,0000.61,0000.44,19.0,24.9,13.2,09.2,0678.4,31.0
2021-05-26T16:43:00Z,00000200,00000000,0003.92,0002.66,0001.68,0000.20,0000.34,0000.29,-000.61,-000.12,0000.11,19.0,24.9,13.2,09.2,0678.3,31.0
2021-05-26T16:44:00Z,00000200,00000000,0004.13,0002.83,0001.87,0000.15,0000.07,0000.02,0000.39,0000.16,0000.30,19.0,24.9,13.1,09.1,0678.4,31.0
2021-05-26T16:45:00Z,00000200,00000000,0003.40,0003.05,0001.64,0000.59,0000.30,0000.36,0000.12,0000.47,0000.22,19.1,25.0,13.1,09.2,0678.4,31.0
2021-05-26T16:46:00Z,00000200,00000000,0003.65,0002.62,0001.76,0000.43,0000.15,0000.01,0000.19,0000.03,0000.27,19.1,25.0,13.0,09.1,0678.3,31.0
2021-05-26T16:47:00Z,00000200,00000000,0003.20,0002.96,0001.86,0000.08,0000.20,0000.03,0000.21,0000.27,0000.53,19.1,25.0,13.2,09.2,0678.4,31.0
2021-05-26T16:48:00Z,00000200,00000000,0003.90,0002.91,0001.82,0000.59,0000.28,0000.08,0000.25,0000.19,0000.10,19.1,25.0,13.1,09.1,0678.4,31.0
2021-05-26T16:49:00Z,00000200,00000000,0003.80,0002.85,0001.80,0000.49,0000.29,0000.17,0000.31,0000.43,0000.93,19.1,25.0,13.1,09.2,0678.4,31.0
2021-05-26T16:50:00Z,00000200,00000000,0003.67,0002.69,0001.63,0000.46,0000.36,0000.33,-000.12,-000.34,-000.72,19.1,25.0,13.1,09.1,0678.4,31.0
2021-05-26T16:51:00Z,00000200,00000000,0003.59,0002.54,0001.67,0000.54,0000.37,0000.10,0000.37,0000.46,0000.66,19.1,25.0,13.0,09.1,0678.4,31.0
2021-05-26T16:52:00Z,00000200,00000000,0002.73,0003.16,0001.60,0000.26,0000.21,0000.03,0000.24,0000.44,0000.35,19.1,25.0,13.0,09.1,0678.4,31.0
2021-05-26T16:53:00Z,00000200,00000000,0003.00,0002.86,0001.50,0000.45,0000.19,-000.02,0000.09,0000.08,0000.16,19.2,25.1,13.0,09.1,0678.5,31.0
2021-05-26T16:54:00Z,00000200,00000000,0003.83,0003.04,0001.84,0000.50,0000.36,0000.27,0000.04,0000.15,0000.42,19.2,25.1,12.9,09.0,0678.4,31.0
2021-05-26T16:55:00Z,00000200,00000000,0002.93,0002.57,0001.55,0000.22,0000.59,0000.11,0000.29,0000.04,0000.81,19.2,25.1,12.9,09.0,0678.4,31.0
2021-05-26T16:56:00Z,00000200,00000000,0003.26,0002.43,0001.78,0000.54,0000.03,-000.06,0000.27,0000.17,-000.22,19.2,25.1,12.9,09.0,0678.4,31.0
2021-05-26T16:57:00Z,00000200,40000000,,,,,,,-000.14,0000.59,0000.27,19.3,25.1,12.4,08.7,0678.5,31.0
2021-05-26T16:58:00Z,00000200,60000000,,,,,,,-000.09,-000.58,0000.12,19.1,25.2,13.1,09.0,0677.5,31.0
2021-05-26T16:59:00Z,00000200,20000000,,,,,,,0000.01,0000.27,0000.03,19.1,25.3,13.0,08.9,0677.5,31.0
